Regional Weather Roundup
Issued by NWS

Home | Current Version | Previous Version | Graphics & Text | Print | Product List | Glossary On
Versions: 1 2 3 4 5 6 7 8 9 10 11 12 13 14 15 16 17 18 19 20 21 22 23 24 25 26 27 28 29 30 31 32 33 34 35 36 37 38 39 40 41 42 43 44 45 46 47 48 49 50
000
ASUS45 KTFX 052210
RWRMT
MONTANA REGIONAL WEATHER ROUNDUP
NATIONAL WEATHER SERVICE GREAT FALLS MT
400 PM MDT SUN JUL 05 2015

NOTE: "FAIR" INDICATES FEW OR NO CLOUDS BELOW 12000 FEET WITH NO
SIGNIFICANT WEATHER AND/OR OBSTRUCTIONS TO VISIBILITY.

MTZ001>007-043-052300-
WEST OF THE DIVIDE

CITY           SKY/WX    TMP DP  RH WIND       PRES   REMARKS
KALISPELL      CLOUDY    64  42  44 NE15G22   30.11R
MISSOULA       PTSUNNY   72  49  44 E6        30.02S
BUTTE          PTSUNNY   69  49  48 SE18      30.09S
MULLAN PASS    MOSUNNY   70  49  47 VRB3      30.12R
DEER LODGE       N/A     61  46  59 N17G26    30.15R
EUREKA           N/A     70  41  35 NE13      30.10R
HAMILTON         N/A     72  59  64 W8        29.97S
LIBBY            N/A     72  43  35 N3        30.07S
PLAINS           N/A     78  50  37 NW6       30.02R
RONAN            N/A     70  49  47 N15       30.09S
$$

MTZ008-052>055-052300-
SOUTHWEST MONTANA

CITY           SKY/WX    TMP DP  RH WIND       PRES   REMARKS
BOZEMAN        CLOUDY    67  51  56 W5        30.09S
DILLON         PTSUNNY   71  52  50 NE17      30.02F
W YELLOWSTONE  CLOUDY    66  50  55 SW18G25   30.14S
THREE FORKS      N/A     68  58  70 N9        30.08S
TWIN BRIDGES     N/A     71  49  45 N25       30.02F
$$

MTZ009-010-012-014-046-048-049-054-052300-
EAST SLOPES AND CENTRAL MONTANA

CITY           SKY/WX    TMP DP  RH WIND       PRES   REMARKS
CUT BANK       CLOUDY    54  46  74 N10       30.22R
GREAT FALLS    LGT RAIN  51  49  92 N7        30.20S
MALMSTROM AFB  LGT RAIN  52  50  95 N9        30.20S
HELENA         CLOUDY    57  46  66 NW10      30.16R
CONRAD           N/A     54  54 100 W7        30.22R
$$

MTZ011-013-016-021-045-047-050-051-052300-
NORTH CENTRAL MONTANA

CITY           SKY/WX    TMP DP  RH WIND       PRES   REMARKS
HAVRE          CLOUDY    62  51  67 MISG      30.15S
LEWISTOWN      LGT RAIN  54  51  90 N8        30.18R FOG
CHINOOK          N/A     64  54  68 W5        30.13S
FORT BENTON      N/A     55  52  88 S3        30.20R
$$

MTZ017>020-022>027-061-062-052300-
NORTHEAST MONTANA

CITY           SKY/WX    TMP DP  RH WIND       PRES   REMARKS
GLASGOW        CLOUDY    68  43  40 W15       30.08R
JORDAN           N/A     67  49  52 N16       30.09R
SIDNEY         PTSUNNY   75  46  35 NW16      30.01R
WOLF POINT     CLOUDY    73  47  39 N8        30.04S
PLENTYWOOD       N/A     70  45  40 NW18G24   30.01S
POPLAR           N/A     72  50  46 NW8       30.04R
$$

MTZ028>42-056>058-052300-
SOUTHCENTRAL AND SOUTHEAST MONTANA

CITY           SKY/WX    TMP DP  RH WIND       PRES   REMARKS
BAKER          CLOUDY    66  55  67 N10       30.05R HAZE
BILLINGS       CLOUDY    64  48  56 E12       30.14R HAZE
LIVINGSTON     CLOUDY    62  47  57 E18       30.12R
MILES CITY     CLOUDY    71  49  45 N9        30.05R HAZE
EKALAKA          N/A     60  55  83 NW9       30.05R
FORSYTH          N/A     70  46  43 N8        30.06S
LAUREL           N/A     64  46  52 NE7       30.10S
ROUNDUP          N/A     66  46  48 N9        30.04R
$$

REGIONAL REPORTS...DAKOTAS

CITY           SKY/WX    TMP DP  RH WIND       PRES   REMARKS
WILLISTON      PTSUNNY   75  46  35 N13G24    29.99S HAZE
MINOT          CLOUDY    73  58  59 NW12      29.91R HAZE
DICKINSON      LGT RAIN  66  57  72 N9        29.98R
BEACH          FAIR      64  59  82 N6        30.02F HAZE
CROSBY         FAIR      72  50  46 NW18      30.00R
BISMARCK       CLOUDY    75  58  55 N16G25    29.91R HAZE
GRAND FORKS    CLOUDY    75  69  81 N12       29.78S
FARGO          PTSUNNY   84  70  62 N7        29.74S
BUFFALO SD       N/A     68  57  68 N21G28    29.92S
RAPID CITY     CLOUDY    77  64  64 N20G29    29.92R
$$

REGIONAL REPORTS...WYOMING/IDAHO/WASHINGTON

CITY           SKY/WX    TMP DP  RH WIND       PRES   REMARKS
GILLETTE       CLOUDY    62  58  86 N20G25    30.07S FOG
SHERIDAN       RAIN      57  54  89 NW12      30.12R FOG
BUFFALO WY     LGT RAIN  57  56  96 N17G26    30.14R FOG
CODY           CLOUDY    55  54  94 N10G16    30.15R
YELLOWSTONE LA   N/A     62  47  57 VRB3      30.25S
IDAHO FALLS    PTSUNNY   80  52  37 SW21      30.02F
SALMON         CLOUDY    86  50  28 W7        29.85S
BOISE          CLOUDY    80  53  39 N10       29.97R
SPOKANE        PTSUNNY   86  44  23 NE14G21   29.92S
$$

REGIONAL REPORTS...ALBERTA

CITY           SKY/WX    TMP DP  RH WIND       PRES   REMARKS
EDMONTON       MOSUNNY   66  37  34 NW8       30.17S
CALGARY        PTSUNNY   63  43  48 N18G26    30.20F
LETHBRIDGE     CLOUDY    61  46  59 NW13G20   30.19S
MEDICINE HAT   PTSUNNY   64  48  55 NW18G24   30.14R
CARDSTON         N/A     54  48  82 W3          N/A
MILK RIVER       N/A     55  48  76 NW9         N/A
ONEFOUR          N/A     59  46  63 NW16        N/A
$$

REGIONAL REPORTS...SASKATCHEWAN

CITY           SKY/WX    TMP DP  RH WIND       PRES   REMARKS
SWIFT CURRENT  CLOUDY    64  48  55 NW16G24   30.08S
REGINA         PTSUNNY   68  50  52 N16G24    30.01R
SASKATOON      PTSUNNY   66  48  52 N16G22    30.06R
CYPRESS HILLS    N/A     55  43  62 NW7         N/A
VAL MARIE        N/A     66  45  45 NW16        N/A
ROCKGLEN         N/A     66  46  48 NW12G17     N/A
$$



USA.gov is the U.S. government's official web portal to all federal, state and local government web resources and services.